Cloquet, MN

7:55 AM CST on December 13, 2019 (GMT -0600)
Cloquet Carlton County

Weather History for KCOQ - October, 2019

Change the Weather History Date:

Monday, October 7, 2019

  Actual Average Record
Temperature  
Mean Temperature 50 °F -  
Max Temperature 60 °F 55 °F 80 °F (2011)
Min Temperature 39 °F 36 °F 24 °F (2005)
Degree Days  
Heating Degree Days 16    
Moisture  
Dew Point 36 °F    
Average Humidity 66    
Maximum Humidity 93    
Minimum Humidity 29    
Precipitation  
Precipitation 0.00 in - - ()
Sea Level Pressure  
Sea Level Pressure 30.04 in    
Wind  
Wind Speed 6 mph ()    
Max Wind Speed 13 mph    
Max Gust Speed 18 mph    
Visibility 10.0 miles    
Events      
Averages and records for this station are not official NWS values.
T = Trace of Precipitation, MM = Missing Value Source: Averaged Metar Reports

Daily Weather History Graph

Daily Weather History Graph

Search for Another Location

Airport or City:

Astronomy

Oct. 07, 2019 Rise Set
Actual Time 7:16 AM CDT 6:38 PM CDT
Civil Twilight 6:46 AM CDT 7:08 PM CDT
Nautical Twilight 6:11 AM CDT 7:43 PM CDT
Astronomical Twilight 5:35 AM CDT 8:18 PM CDT
Moon 4:25 PM CDT (10/7) 12:43 AM CDT (10/7)
Length of Visible Light 12h 22m
Length of Day
11h 21m
Waxing Gibbous, 69% of the Moon is Illuminated
Oct 7
Waxing Gibbous
Oct 13
Full
Oct 21
Last Quarter
Oct 27
New
Nov 4
First Quarter

Hourly Weather History & Observations

Time (CDT) Temp. Windchill Dew Point Humidity Pressure Visibility Wind Dir Wind Speed Gust Speed Precip Events Conditions
12:15 AM 46.4 °F 41.1 °F 37.4 °F 71% 29.92 in 10.0 mi WSW 11.5 mph - N/A   Scattered Clouds
12:16 AM 46.4 °F 41.1 °F 37.4 °F 71% 29.92 in 10.0 mi WSW 11.5 mph - N/A   Scattered Clouds
12:35 AM 44.6 °F 40.2 °F 37.4 °F 76% 29.92 in 10.0 mi WSW 8.1 mph - N/A   Clear
12:36 AM 44.6 °F 39.7 °F 37.4 °F 76% 29.93 in 10.0 mi WSW 9.2 mph - N/A   Clear
12:55 AM 44.6 °F 39.7 °F 37.4 °F 76% 29.93 in 10.0 mi WSW 9.2 mph - N/A   Clear
1:15 AM 44.6 °F 40.2 °F 37.4 °F 76% 29.94 in 10.0 mi WSW 8.1 mph - N/A   Scattered Clouds
1:35 AM 44.6 °F 40.2 °F 37.4 °F 76% 29.94 in 10.0 mi WSW 8.1 mph - N/A   Mostly Cloudy
1:55 AM 44.6 °F 40.7 °F 37.4 °F 76% 29.94 in 10.0 mi WSW 6.9 mph - N/A   Mostly Cloudy
2:15 AM 44.6 °F 40.7 °F 37.4 °F 76% 29.95 in 10.0 mi WSW 6.9 mph - N/A   Scattered Clouds
2:16 AM 44.6 °F 40.7 °F 37.4 °F 76% 29.95 in 10.0 mi WSW 6.9 mph - N/A   Scattered Clouds
2:35 AM 44.6 °F 40.7 °F 37.4 °F 76% 29.95 in 10.0 mi WSW 6.9 mph - N/A   Scattered Clouds
2:55 AM 44.6 °F 40.2 °F 37.4 °F 76% 29.95 in 10.0 mi West 8.1 mph - N/A   Scattered Clouds
3:15 AM 42.8 °F 40.1 °F 37.4 °F 81% 29.96 in 10.0 mi West 4.6 mph - N/A   Clear
3:35 AM 42.8 °F 40.1 °F 37.4 °F 81% 29.98 in 10.0 mi WNW 4.6 mph - N/A   Clear
3:55 AM 42.8 °F 40.1 °F 37.4 °F 81% 29.98 in 10.0 mi West 4.6 mph - N/A   Clear
3:56 AM 42.8 °F 40.1 °F 37.4 °F 81% 29.98 in 10.0 mi West 4.6 mph - N/A   Clear
4:15 AM 41.0 °F 37.1 °F 37.4 °F 87% 29.99 in 10.0 mi WSW 5.8 mph - N/A   Clear
4:35 AM 41.0 °F 37.1 °F 37.4 °F 87% 29.99 in 10.0 mi WSW 5.8 mph - N/A   Clear
4:36 AM 41.0 °F 37.1 °F 37.4 °F 87% 29.99 in 10.0 mi WSW 5.8 mph - N/A   Clear
4:55 AM 39.2 °F 35.9 °F 37.4 °F 93% 30.00 in 10.0 mi West 4.6 mph - N/A   Clear
4:56 AM 39.2 °F 35.9 °F 37.4 °F 93% 30.00 in 10.0 mi West 4.6 mph - N/A   Clear
5:15 AM 39.2 °F 35.9 °F 37.4 °F 93% 30.01 in 10.0 mi West 4.6 mph - N/A   Clear
5:16 AM 39.2 °F 35.9 °F 37.4 °F 93% 30.00 in 10.0 mi West 4.6 mph - N/A   Clear
5:35 AM 39.2 °F 35.9 °F 37.4 °F 93% 30.01 in 10.0 mi WSW 4.6 mph - N/A   Clear
5:55 AM 39.2 °F 35.0 °F 37.4 °F 93% 30.02 in 10.0 mi WSW 5.8 mph - N/A   Clear
5:56 AM 39.2 °F 35.0 °F 37.4 °F 93% 30.02 in 10.0 mi WSW 5.8 mph - N/A   Clear
6:15 AM 39.2 °F 34.2 °F 37.4 °F 93% 30.02 in 10.0 mi West 6.9 mph - N/A   Clear
6:16 AM 39.2 °F 35.0 °F 37.4 °F 93% 30.02 in 10.0 mi West 5.8 mph - N/A   Clear
6:35 AM 39.2 °F 35.0 °F 35.6 °F 87% 30.03 in 10.0 mi West 5.8 mph - N/A   Clear
6:55 AM 39.2 °F 35.0 °F 35.6 °F 87% 30.04 in 10.0 mi West 5.8 mph - N/A   Clear
6:56 AM 39.2 °F 35.0 °F 35.6 °F 87% 30.04 in 10.0 mi West 5.8 mph - N/A   Clear
7:15 AM 39.2 °F 35.0 °F 37.4 °F 93% 30.04 in 10.0 mi West 5.8 mph - N/A   Clear
7:35 AM 39.2 °F 35.0 °F 37.4 °F 93% 30.05 in 10.0 mi West 5.8 mph - N/A   Clear
7:55 AM 39.2 °F 35.0 °F 37.4 °F 93% 30.05 in 10.0 mi West 5.8 mph - N/A   Clear
7:56 AM 39.2 °F 35.0 °F 37.4 °F 93% 30.05 in 10.0 mi West 5.8 mph - N/A   Clear
8:15 AM 42.8 °F 39.3 °F 37.4 °F 81% 30.06 in 10.0 mi West 5.8 mph - N/A   Clear
8:35 AM 42.8 °F 38.0 °F 37.4 °F 81% 30.06 in 10.0 mi West 8.1 mph - N/A   Clear
8:55 AM 44.6 °F 40.2 °F 39.2 °F 81% 30.07 in 10.0 mi West 8.1 mph - N/A   Clear
8:56 AM 44.6 °F 40.2 °F 39.2 °F 81% 30.07 in 10.0 mi West 8.1 mph - N/A   Clear
9:15 AM 44.6 °F 40.2 °F 39.2 °F 81% 30.08 in 10.0 mi West 8.1 mph - N/A   Clear
9:35 AM 46.4 °F 42.4 °F 39.2 °F 76% 30.09 in 10.0 mi West 8.1 mph - N/A   Clear
9:36 AM 46.4 °F 42.4 °F 39.2 °F 76% 30.09 in 10.0 mi West 8.1 mph - N/A   Clear
9:55 AM 48.2 °F - 39.2 °F 71% 30.09 in 10.0 mi West 6.9 mph - N/A   Clear
9:56 AM 48.2 °F - 39.2 °F 71% 30.09 in 10.0 mi West 8.1 mph - N/A   Clear
10:15 AM 48.2 °F - 39.2 °F 71% 30.10 in 10.0 mi West 5.8 mph - N/A   Clear
10:16 AM 50.0 °F - 39.2 °F 66% 30.10 in 10.0 mi West 4.6 mph - N/A   Clear
10:35 AM 51.8 °F - 39.2 °F 62% 30.10 in 10.0 mi West 6.9 mph - N/A   Clear
10:36 AM 51.8 °F - 39.2 °F 62% 30.10 in 10.0 mi West 5.8 mph - N/A   Clear
10:55 AM 51.8 °F - 39.2 °F 62% 30.10 in 10.0 mi WSW 4.6 mph - N/A   Clear
11:15 AM 53.6 °F - 39.2 °F 58% 30.10 in 10.0 mi West 6.9 mph - N/A   Clear
11:16 AM 53.6 °F - 39.2 °F 58% 30.10 in 10.0 mi West 4.6 mph - N/A   Clear
11:35 AM 53.6 °F - 39.2 °F 58% 30.10 in 10.0 mi WSW 6.9 mph - N/A   Clear
11:36 AM 55.4 °F - 37.4 °F 51% 30.10 in 10.0 mi WSW 6.9 mph - N/A   Clear
11:55 AM 55.4 °F - 37.4 °F 51% 30.10 in 10.0 mi West 6.9 mph - N/A   Clear
12:15 PM 57.2 °F - 33.8 °F 41% 30.10 in 10.0 mi West 5.8 mph 9.2 mph N/A   Clear
12:35 PM 57.2 °F - 32.0 °F 38% 30.10 in 10.0 mi West 10.4 mph - N/A   Clear
12:55 PM 57.2 °F - 30.2 °F 36% 30.10 in 10.0 mi WSW 9.2 mph - N/A   Clear
1:15 PM 59.0 °F - 32.0 °F 36% 30.10 in 10.0 mi West 9.2 mph - N/A   Clear
1:35 PM 59.0 °F - 32.0 °F 36% 30.09 in 10.0 mi West 8.1 mph 16.1 mph N/A   Clear
1:36 PM 59.0 °F - 32.0 °F 36% 30.09 in 10.0 mi West 6.9 mph 10.4 mph N/A   Clear
1:55 PM 59.0 °F - 28.4 °F 31% 30.08 in 10.0 mi WSW 8.1 mph 16.1 mph N/A   Clear
2:15 PM 60.8 °F - 28.4 °F 29% 30.07 in 10.0 mi WSW 12.7 mph 18.4 mph N/A   Clear
2:35 PM 60.8 °F - 30.2 °F 31% 30.07 in 10.0 mi WSW 8.1 mph 16.1 mph N/A   Clear
2:36 PM 60.8 °F - 30.2 °F 31% 30.07 in 10.0 mi WSW 6.9 mph - N/A   Clear
2:55 PM 60.8 °F - 32.0 °F 34% 30.07 in 10.0 mi West 9.2 mph - N/A   Clear
3:15 PM 60.8 °F - 30.2 °F 31% 30.07 in 10.0 mi West 8.1 mph 16.1 mph N/A   Clear
3:16 PM 60.8 °F - 30.2 °F 31% 30.07 in 10.0 mi West 8.1 mph 16.1 mph N/A   Clear
3:35 PM 60.8 °F - 30.2 °F 31% 30.06 in 10.0 mi WSW 6.9 mph - N/A   Clear
3:55 PM 60.8 °F - 33.8 °F 36% 30.06 in 10.0 mi SW 4.6 mph - N/A   Clear
4:15 PM 60.8 °F - 30.2 °F 31% 30.06 in 10.0 mi WSW 6.9 mph - N/A   Clear
4:35 PM 60.8 °F - 30.2 °F 31% 30.06 in 10.0 mi West 9.2 mph - N/A   Clear
4:55 PM 60.8 °F - 32.0 °F 34% 30.06 in 10.0 mi WSW 5.8 mph - N/A   Clear
4:56 PM 60.8 °F - 32.0 °F 34% 30.06 in 10.0 mi WSW 8.1 mph - N/A   Clear
5:15 PM 60.8 °F - 32.0 °F 34% 30.06 in 10.0 mi WSW 4.6 mph - N/A   Clear
5:35 PM 59.0 °F - 32.0 °F 36% 30.06 in 10.0 mi West 5.8 mph - N/A   Clear
5:55 PM 57.2 °F - 33.8 °F 41% 30.06 in 10.0 mi WSW 3.5 mph - N/A   Clear
5:56 PM 57.2 °F - 33.8 °F 41% 30.06 in 10.0 mi WSW 3.5 mph - N/A   Clear
6:15 PM 57.2 °F - 33.8 °F 41% 30.06 in 10.0 mi SW 3.5 mph - N/A   Clear
6:16 PM 57.2 °F - 35.6 °F 44% 30.06 in 10.0 mi SW 3.5 mph - N/A   Clear
6:35 PM 53.6 °F - 37.4 °F 54% 30.05 in 10.0 mi Calm Calm - N/A   Clear
6:36 PM 53.6 °F - 37.4 °F 54% 30.05 in 10.0 mi Calm Calm - N/A   Clear
6:55 PM 51.8 °F - 39.2 °F 62% 30.06 in 10.0 mi Calm Calm - N/A   Clear
6:56 PM 51.8 °F - 39.2 °F 62% 30.06 in 10.0 mi Calm Calm - N/A   Clear
7:15 PM 48.2 °F - 39.2 °F 71% 30.06 in 10.0 mi Calm Calm - N/A   Clear
7:16 PM 48.2 °F - 39.2 °F 71% 30.06 in 10.0 mi Calm Calm - N/A   Clear
7:35 PM 48.2 °F - 39.2 °F 71% 30.06 in 10.0 mi Calm Calm - N/A   Clear
7:55 PM 46.4 °F - 39.2 °F 76% 30.06 in 10.0 mi Calm Calm - N/A   Clear
7:56 PM 46.4 °F - 39.2 °F 76% 30.06 in 10.0 mi Calm Calm - N/A   Clear
8:15 PM 46.4 °F - 37.4 °F 71% 30.06 in 10.0 mi Calm Calm - N/A   Clear
8:16 PM 46.4 °F - 37.4 °F 71% 30.06 in 10.0 mi Calm Calm - N/A   Clear
8:35 PM 46.4 °F - 37.4 °F 71% 30.06 in 10.0 mi Calm Calm - N/A   Clear
8:36 PM 46.4 °F - 37.4 °F 71% 30.06 in 10.0 mi Calm Calm - N/A   Clear
8:55 PM 46.4 °F - 37.4 °F 71% 30.06 in 10.0 mi Calm Calm - N/A   Clear
9:15 PM 48.2 °F - 37.4 °F 66% 30.06 in 10.0 mi Calm Calm - N/A   Clear
9:35 PM 48.2 °F - 37.4 °F 66% 30.06 in 10.0 mi Calm Calm - N/A   Clear
9:55 PM 46.4 °F - 37.4 °F 71% 30.06 in 10.0 mi Calm Calm - N/A   Clear
9:56 PM 46.4 °F - 37.4 °F 71% 30.06 in 10.0 mi Calm Calm - N/A   Clear
10:15 PM 46.4 °F - 35.6 °F 66% 30.06 in 10.0 mi Calm Calm - N/A   Clear
10:35 PM 46.4 °F - 35.6 °F 66% 30.05 in 10.0 mi Calm Calm - N/A   Clear
10:55 PM 46.4 °F - 35.6 °F 66% 30.05 in 10.0 mi Calm Calm - N/A   Clear
11:15 PM 46.4 °F - 35.6 °F 66% 30.05 in 10.0 mi Calm Calm - N/A   Clear
11:16 PM 46.4 °F - 35.6 °F 66% 30.05 in 10.0 mi Calm Calm - N/A   Clear
11:36 PM 46.4 °F - 35.6 °F 66% 30.05 in 10.0 mi Calm Calm - N/A   Clear
11:55 PM 46.4 °F - 35.6 °F 66% 30.05 in 10.0 mi Calm Calm - N/A   Clear